Time,TemperatureF,DewpointF,PressureIn,WindDirection,WindDirectionDegrees,WindSpeedMPH,WindSpeedGustMPH,Humidity,HourlyPrecipIn,Conditions,Clouds,dailyrainin,SoftwareType,DateUTC
2013-08-15 00:05:00,80.4,73.3,29.83,SE,135,2.7,-999.0,79,-99.99,,,0.00,Acu-Link.com,2013-08-15 05:05:00,
2013-08-15 00:20:00,80.1,73.4,29.83,SSE,157,3.7,-999.0,80,-99.99,,,0.00,Acu-Link.com,2013-08-15 05:20:00,
2013-08-15 00:35:00,80.2,73.5,29.82,South,180,3.7,-999.0,80,-99.99,,,0.00,Acu-Link.com,2013-08-15 05:35:00,
2013-08-15 00:50:00,80.2,73.5,29.82,South,180,3.7,-999.0,80,-99.99,,,0.00,Acu-Link.com,2013-08-15 05:50:00,
2013-08-15 01:05:00,80.1,73.7,29.81,East,90,4.7,-999.0,81,-99.99,,,0.00,Acu-Link.com,2013-08-15 06:05:00,
2013-08-15 01:20:00,79.9,73.9,29.80,ESE,112,2.7,-999.0,82,-99.99,,,0.00,Acu-Link.com,2013-08-15 06:20:00,
2013-08-15 01:35:00,79.5,73.9,29.81,South,180,3.7,-999.0,83,-99.99,,,0.00,Acu-Link.com,2013-08-15 06:35:00,
2013-08-15 01:50:00,79.3,73.7,29.79,SSE,157,3.7,-999.0,83,-99.99,,,0.00,Acu-Link.com,2013-08-15 06:50:00,
2013-08-15 02:06:00,79.2,73.9,29.77,SE,135,3.7,-999.0,84,-99.99,,,0.00,Acu-Link.com,2013-08-15 07:06:00,
2013-08-15 02:21:00,79.0,73.7,29.79,SSE,157,2.7,-999.0,84,-99.99,,,0.00,Acu-Link.com,2013-08-15 07:21:00,
2013-08-15 02:36:00,78.8,73.9,29.80,SSE,157,2.7,-999.0,85,-99.99,,,0.00,Acu-Link.com,2013-08-15 07:36:00,
2013-08-15 02:51:00,78.6,73.7,29.80,South,180,2.7,-999.0,85,-99.99,,,0.00,Acu-Link.com,2013-08-15 07:51:00,
2013-08-15 03:08:00,78.6,73.7,29.79,South,180,0.0,-999.0,85,-99.99,,,0.00,Acu-Link.com,2013-08-15 08:08:00,
2013-08-15 03:24:00,78.6,73.7,29.79,ESE,112,2.2,-999.0,85,-99.99,,,0.00,Acu-Link.com,2013-08-15 08:24:00,
2013-08-15 03:39:00,78.3,73.8,29.77,SE,135,1.7,-999.0,86,-99.99,,,0.00,Acu-Link.com,2013-08-15 08:39:00,
2013-08-15 03:54:00,77.9,74.0,29.80,SE,135,1.1,-999.0,88,-99.99,,,0.00,Acu-Link.com,2013-08-15 08:54:00,
2013-08-15 04:09:00,77.4,73.9,29.82,ENE,67,0.0,-999.0,89,-99.99,,,0.00,Acu-Link.com,2013-08-15 09:09:00,
2013-08-15 04:24:00,77.4,74.2,29.79,South,180,1.1,-999.0,90,-99.99,,,0.00,Acu-Link.com,2013-08-15 09:24:00,
2013-08-15 04:39:00,77.9,74.7,29.78,East,90,0.0,-999.0,90,-99.99,,,0.00,Acu-Link.com,2013-08-15 09:39:00,
2013-08-15 04:54:00,78.1,74.9,29.80,SSE,157,1.7,-999.0,90,-99.99,,,0.00,Acu-Link.com,2013-08-15 09:54:00,
2013-08-15 05:09:00,78.3,74.8,29.81,South,180,0.0,-999.0,89,-99.99,,,0.00,Acu-Link.com,2013-08-15 10:09:00,
2013-08-15 05:24:00,78.1,74.6,29.79,South,180,0.0,-999.0,89,-99.99,,,0.00,Acu-Link.com,2013-08-15 10:24:00,
2013-08-15 05:40:00,77.7,74.2,29.77,SSW,202,0.0,-999.0,89,-99.99,,,0.00,Acu-Link.com,2013-08-15 10:40:00,
2013-08-15 05:55:00,77.4,74.2,29.78,South,180,0.0,-999.0,90,-99.99,,,0.00,Acu-Link.com,2013-08-15 10:55:00,
2013-08-15 06:10:00,76.6,73.4,29.81,NNE,22,0.0,-999.0,90,-99.99,,,0.00,Acu-Link.com,2013-08-15 11:10:00,
2013-08-15 06:25:00,75.9,72.7,29.82,West,270,0.0,-999.0,90,-99.99,,,0.00,Acu-Link.com,2013-08-15 11:25:00,
2013-08-15 06:40:00,75.6,72.5,29.81,NNE,22,0.0,-999.0,90,-99.99,,,0.00,Acu-Link.com,2013-08-15 11:40:00,
2013-08-15 06:55:00,75.0,71.9,29.80,North,0,0.0,-999.0,90,-99.99,,,0.00,Acu-Link.com,2013-08-15 11:55:00,
2013-08-15 07:10:00,75.2,72.7,29.80,SW,225,0.0,-999.0,92,-99.99,,,0.00,Acu-Link.com,2013-08-15 12:10:00,
2013-08-15 07:25:00,75.4,73.2,29.80,South,180,0.0,-999.0,93,-99.99,,,0.00,Acu-Link.com,2013-08-15 12:25:00,
2013-08-15 07:40:00,75.2,73.0,29.80,South,180,0.0,-999.0,93,-99.99,,,0.00,Acu-Link.com,2013-08-15 12:40:00,
2013-08-15 07:56:00,75.6,73.4,29.81,South,180,0.0,-999.0,93,-99.99,,,0.00,Acu-Link.com,2013-08-15 12:56:00,
2013-08-15 08:26:00,77.5,74.7,29.81,SSW,202,0.0,-999.0,91,-99.99,,,0.00,Acu-Link.com,2013-08-15 13:26:00,
2013-08-15 08:41:00,78.6,75.1,29.81,South,180,1.7,-999.0,89,-99.99,,,0.00,Acu-Link.com,2013-08-15 13:41:00,
2013-08-15 08:56:00,79.9,75.3,29.81,South,180,1.7,-999.0,86,-99.99,,,0.00,Acu-Link.com,2013-08-15 13:56:00,
2013-08-15 09:11:00,81.3,76.0,29.81,SE,135,2.2,-999.0,84,-99.99,,,0.00,Acu-Link.com,2013-08-15 14:11:00,
2013-08-15 09:26:00,83.5,76.3,29.82,SSE,157,4.7,-999.0,79,-99.99,,,0.00,Acu-Link.com,2013-08-15 14:26:00,
2013-08-15 09:41:00,87.1,77.8,29.81,SSE,157,2.2,-999.0,74,-99.99,,,0.00,Acu-Link.com,2013-08-15 14:41:00,
2013-08-15 09:56:00,87.3,77.1,29.81,South,180,3.7,-999.0,72,-99.99,,,0.00,Acu-Link.com,2013-08-15 14:56:00,
2013-08-15 10:12:00,89.4,77.0,29.81,SW,225,3.2,-999.0,67,-99.99,,,0.00,Acu-Link.com,2013-08-15 15:12:00,
2013-08-15 10:27:00,92.1,76.2,29.80,South,180,4.2,-999.0,60,-99.99,,,0.00,Acu-Link.com,2013-08-15 15:27:00,
2013-08-15 10:42:00,93.9,76.3,29.80,SE,135,2.2,-999.0,57,-99.99,,,0.00,Acu-Link.com,2013-08-15 15:42:00,
2013-08-15 10:57:00,97.5,76.3,29.81,East,90,2.7,-999.0,51,-99.99,,,0.00,Acu-Link.com,2013-08-15 15:57:00,
2013-08-15 11:12:00,96.4,75.3,29.80,SSW,202,2.2,-999.0,51,-99.99,,,0.00,Acu-Link.com,2013-08-15 16:12:00,
2013-08-15 11:27:00,92.7,74.7,29.80,SSE,157,2.2,-999.0,56,-99.99,,,0.00,Acu-Link.com,2013-08-15 16:27:00,
2013-08-15 11:42:00,94.3,74.5,29.79,SSE,157,0.0,-999.0,53,-99.99,,,0.00,Acu-Link.com,2013-08-15 16:42:00,
2013-08-15 11:57:00,97.3,73.0,29.79,East,90,2.2,-999.0,46,-99.99,,,0.00,Acu-Link.com,2013-08-15 16:57:00,
2013-08-15 12:12:00,94.5,77.4,29.79,NNE,22,2.7,-999.0,58,-99.99,,,0.00,Acu-Link.com,2013-08-15 17:12:00,
2013-08-15 12:28:00,93.2,77.2,29.78,ESE,112,4.2,-999.0,60,-99.99,,,0.00,Acu-Link.com,2013-08-15 17:28:00,
2013-08-15 12:43:00,93.9,77.4,29.79,ESE,112,4.2,-999.0,59,-99.99,,,0.00,Acu-Link.com,2013-08-15 17:43:00,
2013-08-15 12:58:00,89.6,77.6,29.81,NE,45,3.2,-999.0,68,-99.99,,,0.00,Acu-Link.com,2013-08-15 17:58:00,
2013-08-15 13:28:00,95.7,78.5,29.78,ESE,112,5.3,-999.0,58,-99.99,,,0.00,Acu-Link.com,2013-08-15 18:28:00,
2013-08-15 13:43:00,95.2,77.5,29.77,East,90,5.8,-999.0,57,-99.99,,,0.00,Acu-Link.com,2013-08-15 18:43:00,
2013-08-15 13:58:00,97.2,77.7,29.79,NE,45,7.8,-999.0,54,-99.99,,,0.00,Acu-Link.com,2013-08-15 18:58:00,
2013-08-15 14:44:00,95.7,77.4,29.77,ESE,112,4.7,-999.0,56,-99.99,,,0.00,Acu-Link.com,2013-08-15 19:44:00,
2013-08-15 15:14:00,95.0,76.8,29.76,East,90,4.2,-999.0,56,-99.99,,,0.00,Acu-Link.com,2013-08-15 20:14:00,
2013-08-15 15:29:00,97.0,76.4,29.76,ESE,112,6.8,-999.0,52,-99.99,,,0.00,Acu-Link.com,2013-08-15 20:29:00,
2013-08-15 15:44:00,97.3,76.1,29.75,NE,45,7.3,-999.0,51,-99.99,,,0.00,Acu-Link.com,2013-08-15 20:44:00,
2013-08-15 16:14:00,96.4,74.7,29.74,East,90,6.3,-999.0,50,-99.99,,,0.00,Acu-Link.com,2013-08-15 21:14:00,
2013-08-15 16:45:00,96.1,75.0,29.74,ESE,112,4.2,-999.0,51,-99.99,,,0.00,Acu-Link.com,2013-08-15 21:45:00,
2013-08-15 17:15:00,94.6,73.6,29.72,East,90,5.8,-999.0,51,-99.99,,,0.00,Acu-Link.com,2013-08-15 22:15:00,
2013-08-15 17:30:00,94.6,75.3,29.72,NE,45,4.2,-999.0,54,-99.99,,,0.00,Acu-Link.com,2013-08-15 22:30:00,
2013-08-15 18:15:00,91.4,74.5,29.73,NE,45,6.8,-999.0,58,-99.99,,,0.00,Acu-Link.com,2013-08-15 23:15:00,
2013-08-15 18:31:00,91.0,75.6,29.72,ENE,67,6.8,-999.0,61,-99.99,,,0.00,Acu-Link.com,2013-08-15 23:31:00,
2013-08-15 18:46:00,90.1,75.3,29.72,ESE,112,6.8,-999.0,62,-99.99,,,0.00,Acu-Link.com,2013-08-15 23:46:00,
2013-08-15 19:01:00,89.1,75.3,29.73,SE,135,7.8,-999.0,64,-99.99,,,0.00,Acu-Link.com,2013-08-16 00:01:00,
2013-08-15 19:16:00,87.1,74.8,29.74,ESE,112,7.3,-999.0,67,-99.99,,,0.00,Acu-Link.com,2013-08-16 00:16:00,
2013-08-15 19:31:00,86.4,75.4,29.75,SE,135,5.3,-999.0,70,-99.99,,,0.00,Acu-Link.com,2013-08-16 00:31:00,
2013-08-15 19:46:00,85.3,75.2,29.75,ESE,112,5.8,-999.0,72,-99.99,,,0.00,Acu-Link.com,2013-08-16 00:46:00,
2013-08-15 20:01:00,84.7,75.1,29.75,ENE,67,3.7,-999.0,73,-99.99,,,0.00,Acu-Link.com,2013-08-16 01:01:00,
2013-08-15 20:31:00,84.2,75.0,29.77,NNE,22,3.7,-999.0,74,-99.99,,,0.00,Acu-Link.com,2013-08-16 01:31:00,
2013-08-15 20:47:00,84.0,74.8,29.78,East,90,1.7,-999.0,74,-99.99,,,0.00,Acu-Link.com,2013-08-16 01:47:00,
2013-08-15 21:02:00,83.7,74.5,29.78,East,90,5.8,-999.0,74,-99.99,,,0.00,Acu-Link.com,2013-08-16 02:02:00,
2013-08-15 21:17:00,83.5,74.3,29.77,NE,45,3.7,-999.0,74,-99.99,,,0.00,Acu-Link.com,2013-08-16 02:17:00,
2013-08-15 21:32:00,83.5,74.7,29.77,ESE,112,4.2,-999.0,75,-99.99,,,0.00,Acu-Link.com,2013-08-16 02:32:00,
2013-08-15 21:47:00,83.3,75.3,29.78,ESE,112,6.8,-999.0,77,-99.99,,,0.00,Acu-Link.com,2013-08-16 02:47:00,
2013-08-15 22:02:00,83.1,75.1,29.79,East,90,4.2,-999.0,77,-99.99,,,0.00,Acu-Link.com,2013-08-16 03:02:00,
2013-08-15 22:18:00,82.8,74.8,29.81,East,90,0.0,-999.0,77,-99.99,,,0.00,Acu-Link.com,2013-08-16 03:18:00,
2013-08-15 22:33:00,82.6,74.6,29.84,ESE,112,2.7,-999.0,77,-99.99,,,0.00,Acu-Link.com,2013-08-16 03:33:00,
2013-08-15 22:48:00,82.4,74.4,29.84,ESE,112,3.2,-999.0,77,-99.99,,,0.00,Acu-Link.com,2013-08-16 03:48:00,
2013-08-15 23:03:00,82.4,74.4,29.84,ESE,112,4.7,-999.0,77,-99.99,,,0.00,Acu-Link.com,2013-08-16 04:03:00,
2013-08-15 23:18:00,82.4,74.4,29.85,East,90,2.7,-999.0,77,-99.99,,,0.00,Acu-Link.com,2013-08-16 04:18:00,
2013-08-15 23:33:00,82.2,74.6,29.85,East,90,3.2,-999.0,78,-99.99,,,0.00,Acu-Link.com,2013-08-16 04:33:00,
2013-08-15 23:48:00,82.0,74.4,29.85,South,180,0.0,-999.0,78,-99.99,,,0.00,Acu-Link.com,2013-08-16 04:48:00,